FW3855 Weather Reports


time (UTC)temp
C
wind
direction
speed
KPH
gust
KPH
rain 1hr
cm
rain 24hr
cm
rain mn
cm
humidity
%
barometer
mb
20260830235305 32 237 11.3 29.0 0.00 0.00 0.00 19 1016.6
20260830234757 32 176 11.3 29.0 0.00 0.00 0.00 19 1016.7
20260830234251 32 257 8.0 25.7 0.00 0.00 0.00 17 1016.7
20260830233745 32 283 6.4 17.7 0.00 0.00 0.00 17 1016.7
20260830232733 32 195 8.0 24.1 0.00 0.00 0.00 17 1016.7
20260830232227 32 229 8.0 24.1 0.00 0.00 0.00 17 1016.6
20260830231216 32 330 8.0 22.5 0.00 0.00 0.00 17 1016.7
20260830230709 32 300 12.9 32.2 0.00 0.00 0.00 18 1016.8
20260830225657 32 271 14.5 30.6 0.00 0.00 0.00 17 1016.9
20260830225151 32 279 12.9 30.6 0.00 0.00 0.00 17 1017.0
20260830223634 32 290 8.0 22.5 0.00 0.00 0.00 16 1017.0
20260830223127 32 170 9.7 22.5 0.00 0.00 0.00 16 1017.0
20260830222621 32 293 11.3 33.8 0.00 0.00 0.00 17 1017.0
20260830222115 32 202 11.3 33.8 0.00 0.00 0.00 16 1017.0
20260830221610 33 139 8.0 20.9 0.00 0.00 0.00 17 1017.2
20260830220557 32 107 6.4 27.4 0.00 0.00 0.00 19 1017.4
20260830220051 31 136 8.0 27.4 0.00 0.00 0.00 21 1017.4
20260830215545 31 188 9.7 24.1 0.00 0.00 0.00 20 1017.5
20260830215039 32 276 11.3 24.1 0.00 0.00 0.00 19 1017.6
20260830214533 32 153 11.3 29.0 0.00 0.00 0.00 19 1017.6
20260830214027 32 141 4.8 24.1 0.00 0.00 0.00 18 1017.5
20260830213521 32 281 3.2 17.7 0.00 0.00 0.00 19 1017.6
20260830212004 31 179 8.0 30.6 0.00 0.00 0.00 20 1017.8
20260830211457 31 167 8.0 25.7 0.00 0.00 0.00 22 1017.7
20260830210951 31 261 8.0 19.3 0.00 0.00 0.00 21 1018.1
20260830205940 31 236 6.4 19.3 0.00 0.00 0.00 22 1018.1
20260830204933 31 155 11.3 24.1 0.00 0.00 0.00 20 1018.2
20260830204438 31 123 9.7 20.9 0.00 0.00 0.00 20 1018.3
20260830203935 31 277 8.0 22.5 0.00 0.00 0.00 21 1018.3
20260830203436 31 245 6.4 27.4 0.00 0.00 0.00 22 1018.4
20260830202934 31 210 8.0 27.4 0.00 0.00 0.00 23 1018.3
20260830202431 30 169 9.7 29.0 0.00 0.00 0.00 24 1018.3
20260830201431 31 204 4.8 24.1 0.00 0.00 0.00 28 1018.4
20260830200931 31 84 9.7 27.4 0.00 0.00 0.00 29 1018.8
20260830200431 31 235 11.3 35.4 0.00 0.00 0.00 28 1018.6
20260830195931 31 100 9.7 35.4 0.00 0.00 0.00 27 1018.9
20260830195430 31 80 9.7 30.6 0.00 0.00 0.00 28 1018.4
20260830194930 31 164 8.0 30.6 0.00 0.00 0.00 26 1018.5
20260830194429 31 327 8.0 29.0 0.00 0.00 0.00 26 1018.5
20260830193922 31 135 9.7 30.6 0.00 0.00 0.00 25 1018.8
20260830193424 31 249 9.7 30.6 0.00 0.00 0.00 25 1018.9
20260830192923 31 55 8.0 22.5 0.00 0.00 0.00 26 1019.0
20260830192422 31 112 8.0 30.6 0.00 0.00 0.00 27 1019.0
20260830191422 31 186 11.3 30.6 0.00 0.00 0.00 26 1019.1
20260830190424 31 149 8.0 29.0 0.00 0.00 0.00 25 1019.3
20260830185923 31 257 9.7 27.4 0.00 0.00 0.00 26 1019.3
20260830185418 31 195 11.3 27.4 0.00 0.00 0.00 26 1019.1
20260830184918 30 164 9.7 27.4 0.00 0.00 0.00 27 1019.3
20260830183419 30 216 11.3 29.0 0.00 0.00 0.00 27 1019.4
20260830182917 31 129 11.3 27.4 0.00 0.00 0.00 26 1019.6
20260830182417 30 96 9.7 27.4 0.00 0.00 0.00 26 1019.7
20260830181918 30 257 8.0 25.7 0.00 0.00 0.00 26 1019.4
20260830181420 30 115 8.0 25.7 0.00 0.00 0.00 28 1019.6
20260830180914 30 110 8.0 25.7 0.00 0.00 0.00 27 1019.6
20260830180411 30 200 11.3 35.4 0.00 0.00 0.00 27 1019.6
20260830175912 30 101 11.3 35.4 0.00 0.00 0.00 28 1019.6
20260830175411 30 107 9.7 27.4 0.00 0.00 0.00 28 1019.6
20260830174913 30 355 9.7 27.4 0.00 0.00 0.00 28 1019.4
20260830174410 30 123 9.7 24.1 0.00 0.00 0.00 28 1019.4
20260830173911 30 154 11.3 33.8 0.00 0.00 0.00 29 1019.6
20260830173409 29 92 11.3 33.8 0.00 0.00 0.00 30 1019.4
20260830172908 29 89 9.7 27.4 0.00 0.00 0.00 31 1019.6
20260830172410 29 304 9.7 27.4 0.00 0.00 0.00 30 1019.6
20260830171909 29 172 9.7 24.1 0.00 0.00 0.00 31 1019.6
20260830171410 29 198 9.7 30.6 0.00 0.00 0.00 31 1019.6
20260830170902 29 287 9.7 30.6 0.00 0.00 0.00 32 1019.6
20260830170401 29 116 9.7 25.7 0.00 0.00 0.00 31 1019.6
20260830165903 28 184 9.7 25.7 0.00 0.00 0.00 32 1019.4
20260830165406 29 69 8.0 25.7 0.00 0.00 0.00 32 1019.6
20260830164900 28 146 8.0 19.3 0.00 0.00 0.00 33 1019.4
20260830164359 28 109 6.4 25.7 0.00 0.00 0.00 33 1019.3
20260830163900 28 179 4.8 25.7 0.00 0.00 0.00 34 1019.4
20260830163357 28 207 8.0 32.2 0.00 0.00 0.00 34 1019.3
20260830162857 28 200 11.3 33.8 0.00 0.00 0.00 34 1019.2
20260830162355 28 137 11.3 33.8 0.00 0.00 0.00 34 1019.3
20260830160855 27 117 9.7 32.2 0.00 0.00 0.00 35 1019.3
20260830160355 27 205 9.7 22.5 0.00 0.00 0.00 34 1019.2
20260830155855 27 65 11.3 27.4 0.00 0.00 0.00 36 1019.2
20260830155400 27 176 12.9 30.6 0.00 0.00 0.00 36 1019.1
20260830154353 27 172 11.3 29.0 0.00 0.00 0.00 37 1019.2
20260830153339 27 220 11.3 30.6 0.00 0.00 0.00 37 1019.2
20260830152833 26 276 11.3 40.2 0.00 0.00 0.00 37 1019.4
20260830152330 26 159 11.3 40.2 0.00 0.00 0.00 38 1019.4
20260830151821 26 144 12.9 29.0 0.00 0.00 0.00 39 1019.3
20260830151315 26 219 12.9 29.0 0.00 0.00 0.00 39 1019.2
20260830150809 26 172 9.7 24.1 0.00 0.00 0.00 39 1019.2
20260830150303 26 158 9.7 27.4 0.00 0.00 0.00 39 1019.2
20260830145757 26 185 11.3 27.4 0.00 0.00 0.00 40 1019.1
20260830145252 26 192 11.3 30.6 0.00 0.00 0.00 41 1019.1
20260830144745 26 187 11.3 30.6 0.00 0.00 0.00 42 1019.1
20260830144239 25 200 11.3 29.0 0.00 0.00 0.00 42 1019.1
20260830143733 25 160 9.7 27.4 0.00 0.00 0.00 42 1019.1
20260830143227 25 167 11.3 27.4 0.00 0.00 0.00 43 1019.1
20260830142721 25 123 12.9 27.4 0.00 0.00 0.00 43 1019.1
20260830142218 25 217 12.9 30.6 0.00 0.00 0.00 44 1019.0
20260830141720 25 190 11.3 30.6 0.00 0.00 0.00 44 1019.1
20260830140717 25 171 8.0 29.0 0.00 0.00 0.00 44 1019.1
20260830140219 24 186 8.0 29.0 0.00 0.00 0.00 45 1019.1
20260830135719 24 108 9.7 22.5 0.00 0.00 0.00 45 1019.0
20260830135219 24 198 6.4 22.5 0.00 0.00 0.00 46 1019.0
20260830133620 -17 0.0 0.0 0.00 0.00 0.00 1018.9
20260830133115 -17 0.0 0.0 0.00 0.00 0.00 1018.8
20260830131411 -17 0.0 0.0 0.00 0.00 0.00 1018.6
20260830130822 -17 0.0 0.0 0.00 0.00 0.00 1018.5
20260830125731 -17 0.0 0.0 0.00 0.00 0.00 1018.4
20260830125225 -17 0.0 0.0 0.00 0.00 0.00 1018.5
20260830124724 -17 0.0 0.0 0.00 0.00 0.00 1018.4
20260830123721 -17 0.0 0.0 0.00 0.00 0.00 1018.2
20260830123208 -17 206 6.4 32.2 0.00 0.00 0.00 1018.2
20260830122709 24 206 6.4 32.2 0.00 0.00 0.00 41 1018.2
20260830121650 24 162 11.3 32.2 0.00 0.00 0.00 41 1018.0
20260830121144 24 191 9.7 22.5 0.00 0.00 0.00 40 1018.1
20260830120641 25 199 9.7 25.7 0.00 0.00 0.00 39 1018.0
20260830120135 25 246 11.3 25.7 0.00 0.00 0.00 38 1018.0
20260830115629 25 129 11.3 29.0 0.00 0.00 0.00 37 1018.0
20260830115123 25 179 8.0 32.2 0.00 0.00 0.00 36 1017.8
20260830114617 25 189 6.4 33.8 0.00 0.00 0.00 35 1018.0
20260830114111 25 194 6.4 25.7 0.00 0.00 0.00 34 1018.0
20260830113100 25 187 8.0 24.1 0.00 0.00 0.00 32 1018.0
20260830112554 25 221 6.4 24.1 0.00 0.00 0.00 31 1017.7
20260830112047 25 217 4.8 12.9 0.00 0.00 0.00 30 1017.8
20260830111541 25 214 6.4 19.3 0.00 0.00 0.00 29 1017.8
20260830111036 26 183 9.7 24.1 0.00 0.00 0.00 29 1017.7
20260830110024 26 157 9.7 20.9 0.00 0.00 0.00 28 1017.6
20260830105517 26 208 9.7 22.5 0.00 0.00 0.00 28 1017.6
20260830105012 26 211 11.3 25.7 0.00 0.00 0.00 28 1017.6
20260830104506 26 158 11.3 25.7 0.00 0.00 0.00 28 1017.5
20260830103958 26 188 11.3 20.9 0.00 0.00 0.00 27 1017.5
20260830103459 26 151 9.7 19.3 0.00 0.00 0.00 27 1017.5
20260830102959 26 172 8.0 24.1 0.00 0.00 0.00 27 1017.5
20260830102502 26 184 4.8 24.1 0.00 0.00 0.00 28 1017.5
20260830102003 26 198 4.8 16.1 0.00 0.00 0.00 27 1017.5
20260830101458 26 141 4.8 16.1 0.00 0.00 0.00 27 1017.5
20260830100959 26 206 4.8 14.5 0.00 0.00 0.00 27 1017.5
20260830100459 26 176 3.2 12.9 0.00 0.00 0.00 27 1017.5
20260830095953 26 188 4.8 14.5 0.00 0.00 0.00 27 1017.4
20260830095454 26 219 6.4 16.1 0.00 0.00 0.00 26 1017.4
20260830094452 26 158 4.8 20.9 0.00 0.00 0.00 26 1017.3
20260830093952 26 214 6.4 20.9 0.00 0.00 0.00 26 1017.3
20260830093452 26 184 6.4 22.5 0.00 0.00 0.00 25 1017.3
20260830091951 27 150 8.0 19.3 0.00 0.00 0.00 24 1017.0
20260830091451 27 134 8.0 19.3 0.00 0.00 0.00 24 1017.0
20260830090950 27 215 8.0 22.5 0.00 0.00 0.00 24 1017.0
20260830090451 27 134 8.0 22.5 0.00 0.00 0.00 24 1017.0
20260830085952 27 199 8.0 22.5 0.00 0.00 0.00 24 1017.0
20260830085453 27 167 6.4 19.3 0.00 0.00 0.00 24 1017.0
20260830084951 27 136 8.0 20.9 0.00 0.00 0.00 24 1017.0
20260830083952 27 163 8.0 20.9 0.00 0.00 0.00 23 1017.2
20260830082951 27 201 8.0 19.3 0.00 0.00 0.00 23 1017.0
20260830082452 28 178 8.0 17.7 0.00 0.00 0.00 23 1017.0
20260830081448 28 162 8.0 22.5 0.00 0.00 0.00 22 1017.0
20260830080949 28 135 9.7 22.5 0.00 0.00 0.00 22 1017.0
20260830080449 28 205 6.4 22.5 0.00 0.00 0.00 22 1017.2
20260830074949 28 134 6.4 14.5 0.00 0.00 0.00 22 1017.3
20260830074450 28 212 8.0 19.3 0.00 0.00 0.00 22 1017.2
20260830073446 28 211 6.4 17.7 0.00 0.00 0.00 21 1017.2
20260830072446 28 180 9.7 22.5 0.00 0.00 0.00 21 1017.2
20260830071444 28 181 9.7 29.0 0.00 0.00 0.00 21 1017.4
20260830070943 28 163 8.0 29.0 0.00 0.00 0.00 21 1017.4
20260830070437 28 153 6.4 17.7 0.00 0.00 0.00 21 1017.4
20260830065426 29 136 8.0 17.7 0.00 0.00 0.00 20 1017.4
20260830064919 29 174 9.7 20.9 0.00 0.00 0.00 20 1017.4
20260830064413 29 127 9.7 24.1 0.00 0.00 0.00 20 1017.5
20260830063908 29 224 9.7 24.1 0.00 0.00 0.00 20 1017.5
20260830063401 28 163 8.0 20.9 0.00 0.00 0.00 20 1017.5
20260830062857 29 158 8.0 25.7 0.00 0.00 0.00 20 1017.5
20260830062356 29 218 8.0 25.7 0.00 0.00 0.00 20 1017.5
20260830061857 29 217 8.0 20.9 0.00 0.00 0.00 20 1017.5
20260830060854 29 188 8.0 19.3 0.00 0.00 0.00 20 1017.5
20260830060354 29 147 8.0 20.9 0.00 0.00 0.00 19 1017.5
20260830055853 29 178 8.0 20.9 0.00 0.00 0.00 19 1017.5
20260830055350 29 121 9.7 33.8 0.00 0.00 0.00 19 1017.5
20260830054850 29 94 11.3 33.8 0.00 0.00 0.00 19 1017.5
20260830054352 28 125 11.3 25.7 0.00 0.00 0.00 19 1017.6
20260830053851 28 162 9.7 25.7 0.00 0.00 0.00 19 1017.5
20260830053351 28 193 9.7 22.5 0.00 0.00 0.00 19 1017.5
20260830052850 28 137 9.7 22.5 0.00 0.00 0.00 19 1017.5
20260830052348 29 91 9.7 17.7 0.00 0.00 0.00 19 1017.7
20260830051848 29 181 8.0 20.9 0.00 0.00 0.00 19 1017.6
20260830051349 29 176 8.0 25.7 0.00 0.00 0.00 18 1017.6
20260830050852 29 109 8.0 25.7 0.00 0.00 0.00 18 1017.6
20260830050352 29 200 6.4 17.7 0.00 0.00 0.00 18 1017.6
20260830045846 29 168 4.8 17.7 0.00 0.00 0.00 18 1017.6
20260830045340 29 198 6.4 17.7 0.00 0.00 0.00 17 1017.7
20260830043317 30 194 8.0 17.7 0.00 0.00 0.00 16 1017.5
20260830042314 30 203 6.4 17.7 0.00 0.00 0.00 16 1017.5
20260830041814 30 197 6.4 17.7 0.00 0.00 0.00 16 1017.4
20260830040311 30 205 4.8 12.9 0.00 0.00 0.00 17 1017.5
20260830035308 30 130 6.4 19.3 0.00 0.00 0.00 17 1017.3
20260830034308 30 101 6.4 14.5 0.00 0.00 0.00 17 1017.0
20260830033308 30 120 4.8 12.9 0.00 0.00 0.00 17 1017.0
20260830032805 30 153 4.8 12.9 0.00 0.00 0.00 18 1016.9
20260830031803 30 166 4.8 16.1 0.00 0.00 0.00 18 1016.8
20260830031303 30 185 4.8 16.1 0.00 0.00 0.00 18 1016.7
20260830030303 30 159 4.8 14.5 0.00 0.00 0.00 18 1016.6
20260830025757 30 195 3.2 8.0 0.00 0.00 0.00 19 1016.4
20260830025251 30 189 4.8 12.9 0.00 0.00 0.00 19 1016.5
20260830024745 30 158 4.8 12.9 0.00 0.00 0.00 19 1016.2
20260830024239 30 152 3.2 9.7 0.00 0.00 0.00 19 1016.2
20260830023733 30 174 3.2 9.7 0.00 0.00 0.00 19 1016.2
20260830023227 30 174 3.2 9.7 0.00 0.00 0.00 19 1016.1
20260830022721 31 149 4.8 12.9 0.00 0.00 0.00 18 1016.1
20260830021710 31 181 8.0 29.0 0.00 0.00 0.00 18 1016.0
20260830021204 31 112 4.8 29.0 0.00 0.00 0.00 18 1016.1
20260830020658 31 159 6.4 19.3 0.00 0.00 0.00 17 1016.0
20260830020151 31 146 4.8 16.1 0.00 0.00 0.00 17 1016.1
20260830015651 31 159 3.2 9.7 0.00 0.00 0.00 17 1016.0
20260830015148 31 223 4.8 8.0 0.00 0.00 0.00 17 1016.0
20260830014648 31 187 4.8 12.9 0.00 0.00 0.00 17 1016.0
20260830014146 32 85 6.4 16.1 0.00 0.00 0.00 18 1016.1
20260830013647 32 195 4.8 16.1 0.00 0.00 0.00 17 1016.1
20260830012652 33 193 8.0 20.9 0.00 0.00 0.00 16 1016.0
20260830012145 33 197 6.4 20.9 0.00 0.00 0.00 16 1016.0
20260830011644 33 186 4.8 12.9 0.00 0.00 0.00 16 1016.1
20260830010142 33 228 9.7 29.0 0.00 0.00 0.00 16 1016.2
20260830005640 33 234 9.7 29.0 0.00 0.00 0.00 15 1016.4
20260830005141 34 208 6.4 20.9 0.00 0.00 0.00 15 1016.2
20260830004641 34 276 6.4 17.7 0.00 0.00 0.00 15 1016.4
20260830003639 34 288 4.8 11.3 0.00 0.00 0.00 14 1016.2
20260830003138 34 201 6.4 24.1 0.00 0.00 0.00 15 1016.1
20260830002641 34 200 8.0 24.1 0.00 0.00 0.00 15 1016.1
20260830001628 34 203 6.4 37.0 0.00 0.00 0.00 14 1016.1
20260830001122 34 128 9.7 37.0 0.00 0.00 0.00 15 1016.1
20260830000613 34 162 11.3 32.2 0.00 0.00 0.00 15 1016.1
20260830000107 34 158 9.7 30.6 0.00 0.00 0.00 15 1016.1